Location: Pine Mountain Observatory
(43.7910°N, 120.9377°W)
Time: 16:48:55
(UTC-07:00)

Explorer 11/Cluster Stage 4 - Pass Details

Date: 26 May 2019
Orbit: 467 x 1260 km, 28.8° (Epoch: 17 June)

Event Time Altitude Azimuth Distance (km) Brightness Sun altitude
Rises 04:36:40 0° 237° (WSW) 3,347 - -8.4°
Exits shadow 04:40:10 - 217° (SW) 2,327 8.4 -7.9°
Reaches altitude 10° 04:40:40 10° 212° (SSW) 2,214 8.3 -7.9°
Maximum altitude 04:43:07 13° 184° (S) 1,869 8.1 -7.5°
Drops below altitude 10° 04:45:22 10° 154° (SSE) 1,987 8.5 -7.2°
Sets 04:48:34 0° 127° (SE) 2,745 9.6 -6.8°
